Stations météo

réclame
Mon MeteoGroup
Leeuwarden, Pays-Bas (6270): Température de l'air & dewpoint: 19.03.2019 11:00:00 - 25.03.2019 11:00:00 (CET)Leeuwarden, Pays-Bas (6270): Température de l'air 5cm: 19.03.2019 11:00:00 - 25.03.2019 11:00:00 (CET)Leeuwarden, Pays-Bas (6270): Vitesse du vent & gusts: 19.03.2019 11:00:00 - 25.03.2019 11:00:00 (CET)Leeuwarden, Pays-Bas (6270): Direction du vent: 19.03.2019 11:00:00 - 25.03.2019 11:00:00 (CET)Leeuwarden, Pays-Bas (6270): reduced air pressure: 19.03.2019 11:00:00 - 25.03.2019 11:00:00 (CET)Leeuwarden, Pays-Bas (6270): visibility: 19.03.2019 11:00:00 - 25.03.2019 11:00:00 (CET)Leeuwarden, Pays-Bas (6270): Quantités de précipitations: 19.03.2019 11:00:00 - 25.03.2019 11:00:00 (CET)
Date & Time tt [°C] td [°C] tt 5cm [°C] ff [km/h] ff [knt] fx [km/h] fx [knt] dd ppp [hPa] vv [km] rr [mm]
25.03.2019 11:00:00 7,4 4,3 6,4 41 22 58 31 NW 1021,1 10 0,0
25.03.2019 10:00:00 4,7 2,6 4,7 39 21 58 31 NW 1020,6 10 0,3
25.03.2019 09:00:00 6,8 3,2 6,3 44 24 68 37 NNW 1019,3 10 0,0
25.03.2019 08:00:00 5,8 2,5 5,5 44 24 68 37 NW 1017,6 10 0,0
25.03.2019 07:00:00 5,5 3,1 4,5 39 21 79 43 NW 1016,9 10 0,5
25.03.2019 06:00:00 6,5 2,3 5,8 39 21 61 33 WNW 1016,5 10 0,0
25.03.2019 05:00:00 6,5 2,6 5,5 41 22 54 29 WNW 1017,0 10 0,0
25.03.2019 04:00:00 6,2 2,9 5,1 28 15 40 21 WNW 1017,6 10 0,0
25.03.2019 03:00:00 5,7 1,7 4,6 29 16 47 25 WNW 1018,1 10 0,0
25.03.2019 02:00:00 4,5 2,6 4,0 37 20 58 31 NW 1018,7 10 0,6
25.03.2019 01:00:00 5,3 3,4 5,1 44 24 61 33 NW 1018,9 10 0,1
25.03.2019 00:00:00 8,0 4,4 7,5 39 21 50 27 W 1019,1 10 0,0
24.03.2019 23:00:00 7,4 4,5 6,8 26 14 40 21 WSW 1020,5 10 0,0
24.03.2019 22:00:00 5,7 2,7 4,0 21 11 32 18 SW 1021,6 10 0,0
24.03.2019 21:00:00 4,1 2,0 3,2 15 8 22 12 WSW 1022,7 10 0,0
24.03.2019 20:00:00 5,1 2,5 3,9 13 7 25 14 W 1023,5 10 0,0
24.03.2019 19:00:00 6,1 2,8 4,9 18 10 32 18 W 1024,0 10 0,0
24.03.2019 18:00:00 7,3 2,6 7,1 24 13 40 21 W 1024,4 10 0,0
24.03.2019 17:00:00 8,2 1,8 8,1 26 14 40 21 W 1024,9 10 0,0
24.03.2019 16:00:00 9,1 2,1 10,2 18 10 32 18 W 1025,5 10 0,0
24.03.2019 15:00:00 9,0 3,4 10,5 21 11 32 18 W 1026,2 10 0,0
24.03.2019 14:00:00 8,5 2,9 10,3 21 11 32 18 W 1027,0 10 0,0
24.03.2019 13:00:00 9,0 3,3 10,8 16 9 29 16 WNW 1027,7 10 0,0
24.03.2019 12:00:00 9,0 3,2 10,5 15 8 25 14 WNW 1028,3 10 0,0
24.03.2019 11:00:00 7,7 3,1 8,3 9 5 22 12 WNW 1028,8 10 0,0
24.03.2019 10:00:00 7,4 4,3 8,9 9 5 14 8 W 1029,4 10 0,0
24.03.2019 09:00:00 6,0 4,5 5,8 5 3 7 4 WNW 1029,4 10 0,0
24.03.2019 08:00:00 5,4 4,7 5,2 4 2 7 4 S 1029,2 10 0,0
24.03.2019 07:00:00 3,4 3,0 2,2 4 2 4 2 W 1029,5 10 0,0
24.03.2019 06:00:00 3,4 3,0 2,1 4 2 4 2 WSW 1029,9 10 0,0
24.03.2019 05:00:00 4,2 3,9 2,0 0 0 4 2 N 1030,0 10 0,0
24.03.2019 04:00:00 3,7 3,2 2,3 4 2 4 2 WNW 1030,5 10 0,0
24.03.2019 03:00:00 4,1 3,3 2,3 4 2 4 2 WNW 1031,1 10 0,0
24.03.2019 02:00:00 3,9 3,3 2,3 4 2 7 4 WNW 1031,6 10 0,0
24.03.2019 01:00:00 4,1 3,9 2,6 2 1 4 2 W 1031,9 10 0,0
24.03.2019 00:00:00 3,4 3,4 1,9 4 2 4 2 - 1032,2 10 0,0
23.03.2019 23:00:00 3,0 2,3 0,7 2 1 4 2 NNW 1032,1 10 0,0
23.03.2019 22:00:00 4,4 3,4 1,5 2 1 4 2 NNW 1032,7 10 0,0
23.03.2019 21:00:00 4,2 3,2 1,4 4 2 7 4 NNW 1032,7 10 0,0
23.03.2019 20:00:00 3,1 2,1 1,7 8 4 14 8 N 1032,5 10 0,0
23.03.2019 19:00:00 5,0 2,9 3,9 9 5 18 10 N 1032,1 10 0,0
23.03.2019 18:00:00 7,0 3,3 6,6 15 8 25 14 N 1032,1 10 0,0
23.03.2019 17:00:00 8,3 3,6 8,8 21 11 29 16 N 1032,0 10 0,0
23.03.2019 16:00:00 8,8 3,8 9,5 21 11 29 16 N 1031,9 10 0,0
23.03.2019 15:00:00 9,6 4,1 10,4 21 11 32 18 N 1031,6 10 0,0
23.03.2019 14:00:00 10,2 5,6 10,7 22 12 32 18 NNW 1031,5 10 0,0
23.03.2019 13:00:00 10,1 6,2 11,0 22 12 29 16 NNW 1031,1 10 0,0
23.03.2019 12:00:00 10,5 6,9 10,4 21 11 29 16 N 1030,4 10 0,0
23.03.2019 11:00:00 9,0 7,6 9,3 16 9 25 14 N 1030,0 10 0,0
23.03.2019 10:00:00 8,7 8,1 8,8 13 7 25 14 NNW 1029,0 5 0,0
23.03.2019 09:00:00 8,8 8,0 8,7 9 5 14 8 WNW 1028,5 8 0,0
23.03.2019 08:00:00 8,4 7,8 8,1 9 5 14 8 W 1028,0 4,3 0,0
23.03.2019 07:00:00 8,1 7,6 7,4 9 5 14 8 WSW 1027,7 4,0 0,0
23.03.2019 06:00:00 7,2 7,1 6,7 9 5 11 6 SW 1027,2 3,1 0,0
23.03.2019 05:00:00 6,1 6,1 5,8 8 4 14 8 SSW 1026,9 2,6 0,0
23.03.2019 04:00:00 4,9 4,9 4,0 8 4 11 6 SSW 1026,6 1,7 0,0
23.03.2019 03:00:00 4,6 4,6 2,3 9 5 11 6 S 1026,4 1,3 0,0
23.03.2019 02:00:00 4,6 4,5 1,6 8 4 11 6 SSW 1026,8 2,2 0,0
23.03.2019 01:00:00 5,0 4,7 2,7 8 4 14 8 SSW 1026,7 3,3 0,0
23.03.2019 00:00:00 7,4 6,1 6,6 9 5 22 12 WSW 1027,2 4,1 0,0
22.03.2019 23:00:00 7,3 6,3 6,7 15 8 32 18 W 1027,2 3,2 0,0
22.03.2019 22:00:00 6,4 6,1 6,2 18 10 32 18 W 1027,3 2,6 0,0
22.03.2019 21:00:00 6,9 6,9 7,0 18 10 25 14 W 1027,1 0,4 0,0
22.03.2019 20:00:00 7,7 7,7 7,8 11 6 18 10 W 1027,0 0,2 0,0
22.03.2019 19:00:00 7,4 7,2 6,7 8 4 11 6 NW 1026,6 0,3 0,0
22.03.2019 18:00:00 12,2 8,4 12,0 13 7 22 12 SW 1026,3 7 0,0
22.03.2019 17:00:00 14,6 8,7 15,1 13 7 22 12 SSW 1026,4 8 0,0
22.03.2019 16:00:00 14,7 10,4 15,9 13 7 22 12 SSW 1026,6 6 0,0
22.03.2019 15:00:00 14,5 10,7 16,4 13 7 22 12 SSW 1027,6 5 0,0
22.03.2019 14:00:00 13,4 10,0 15,5 13 7 22 12 SSW 1028,4 5 0,0
22.03.2019 13:00:00 12,3 9,6 14,5 13 7 22 12 S 1029,1 3,8 0,0
22.03.2019 12:00:00 10,6 9,1 11,7 15 8 22 12 S 1029,8 3,2 0,0
22.03.2019 11:00:00 9,0 8,4 9,9 15 8 22 12 S 1030,6 2,3 0,0
22.03.2019 10:00:00 8,4 8,2 8,8 11 6 18 10 SSE 1031,0 1,4 0,0
22.03.2019 09:00:00 8,2 8,2 8,4 11 6 18 10 S 1031,3 1,0 0,0
22.03.2019 08:00:00 7,9 7,6 7,9 13 7 18 10 S 1031,5 2,0 0,0
22.03.2019 07:00:00 7,8 7,3 7,7 9 5 18 10 S 1031,2 2,1 0,0
22.03.2019 06:00:00 7,7 7,2 7,6 9 5 14 8 SSW 1031,3 2,7 0,0
22.03.2019 05:00:00 7,8 7,0 7,6 8 4 18 10 S 1031,9 3,0 0,0
22.03.2019 04:00:00 7,6 6,7 7,4 9 5 18 10 S 1031,6 3,5 0,0
22.03.2019 03:00:00 7,4 6,6 7,2 4 2 7 4 - 1032,1 5 0,0
22.03.2019 02:00:00 7,3 6,5 7,2 8 4 14 8 S 1032,8 7 0,0
22.03.2019 01:00:00 7,6 6,4 7,5 8 4 14 8 SSE 1032,6 7 0,0
22.03.2019 00:00:00 7,9 6,8 7,7 4 2 11 6 - 1032,9 7 0,0
21.03.2019 23:00:00 8,0 7,2 7,8 4 2 11 6 - 1033,1 9 0,0
21.03.2019 22:00:00 8,1 6,8 7,9 5 3 7 4 SW 1033,6 9 0,0
21.03.2019 21:00:00 8,2 7,0 8,0 8 4 11 6 SW 1033,5 9 0,0
21.03.2019 20:00:00 8,3 6,9 8,1 8 4 14 8 SW 1033,4 10 0,0
21.03.2019 19:00:00 8,5 6,7 8,4 11 6 14 8 SW 1033,3 10 0,0
21.03.2019 18:00:00 8,9 7,0 9,0 13 7 22 12 SW 1033,1 10 0,0
21.03.2019 17:00:00 9,1 6,6 9,0 16 9 36 19 WSW 1033,4 10 0,0
21.03.2019 16:00:00 9,3 7,4 9,3 22 12 29 16 WSW 1033,4 10 0,0
21.03.2019 15:00:00 9,2 7,7 9,3 22 12 32 18 WSW 1033,4 10 0,0
21.03.2019 14:00:00 9,8 7,7 10,0 22 12 32 18 WSW 1033,7 10 0,0
21.03.2019 13:00:00 10,3 7,7 10,6 22 12 32 18 WSW 1033,7 10 0,0
21.03.2019 12:00:00 10,7 8,6 11,5 22 12 32 18 SW 1033,5 10 0,0
21.03.2019 11:00:00 10,1 8,3 10,2 21 11 32 18 SW 1033,6 10 0,0
21.03.2019 10:00:00 9,9 9,0 10,0 16 9 29 16 SW 1033,5 6 0,0
21.03.2019 09:00:00 9,3 8,7 9,3 16 9 25 14 SSW 1033,2 4,7 0,0
21.03.2019 08:00:00 8,3 8,0 8,0 15 8 22 12 SSW 1032,8 3,8 0,0
21.03.2019 07:00:00 6,9 6,6 6,2 15 8 22 12 SSW 1032,2 5 0,0
21.03.2019 06:00:00 6,2 6,1 5,3 11 6 18 10 S 1032,0 3,1 0,0
21.03.2019 05:00:00 6,2 6,1 5,0 9 5 14 8 SSW 1032,1 3,6 0,0
21.03.2019 04:00:00 7,6 7,2 6,8 13 7 18 10 SW 1032,3 5 0,0
21.03.2019 03:00:00 8,8 8,1 8,5 13 7 29 16 SW 1032,6 6 0,0
21.03.2019 02:00:00 9,0 8,2 8,7 21 11 29 16 WSW 1033,1 8 0,0
21.03.2019 01:00:00 8,4 8,3 8,1 15 8 36 19 SW 1033,2 5 0,0
21.03.2019 00:00:00 7,9 7,8 7,8 21 11 32 18 SW 1033,3 2,5 0,0
20.03.2019 23:00:00 8,0 7,9 8,0 21 11 29 16 WSW 1033,2 2,6 0,0
20.03.2019 22:00:00 8,2 7,9 7,9 16 9 29 16 SW 1033,0 3,1 0,0
20.03.2019 21:00:00 6,8 6,6 5,8 13 7 18 10 SW 1032,9 5 0,0
20.03.2019 20:00:00 7,0 6,8 6,2 11 6 14 8 SW 1032,6 5 0,0
20.03.2019 19:00:00 8,4 7,8 7,9 13 7 22 12 WSW 1032,2 7 0,0
20.03.2019 18:00:00 10,1 8,7 10,1 18 10 29 16 WSW 1032,0 9 0,0
20.03.2019 17:00:00 10,9 9,1 11,0 18 10 29 16 SW 1031,9 10 0,0
20.03.2019 16:00:00 10,8 8,9 10,9 16 9 25 14 WSW 1031,9 10 0,0
20.03.2019 15:00:00 10,7 9,0 10,8 18 10 25 14 WSW 1031,7 10 0,0
20.03.2019 14:00:00 10,3 8,9 10,6 21 11 25 14 WSW 1031,9 8 0,0
20.03.2019 13:00:00 9,7 9,1 9,9 16 9 25 14 WSW 1032,0 5 0,0
20.03.2019 12:00:00 9,7 8,4 9,9 22 12 32 18 WSW 1031,6 7 0,0
20.03.2019 11:00:00 9,9 8,6 10,1 24 13 32 18 WSW 1031,0 8 0,0
20.03.2019 10:00:00 9,5 8,6 9,7 21 11 29 16 SW 1030,6 6 0,0
20.03.2019 09:00:00 8,8 8,3 8,8 15 8 29 16 SW 1030,1 6 0,0
20.03.2019 08:00:00 8,3 7,9 8,1 16 9 25 14 SW 1029,7 6 0,0
20.03.2019 07:00:00 7,9 7,4 7,6 15 8 22 12 SW 1029,3 6 0,0
20.03.2019 06:00:00 7,7 7,2 7,4 18 10 25 14 SW 1028,8 5 0,0
20.03.2019 05:00:00 7,1 6,5 6,7 15 8 22 12 SW 1028,9 6 0,0
20.03.2019 04:00:00 6,9 6,0 6,3 13 7 22 12 SSW 1028,8 6 0,0
20.03.2019 03:00:00 6,3 5,5 5,7 13 7 22 12 SSW 1028,9 6 0,0
20.03.2019 02:00:00 5,4 4,8 4,3 11 6 18 10 SSW 1029,2 4,0 0,0
20.03.2019 01:00:00 3,6 3,4 2,2 11 6 18 10 SSW 1029,3 3,7 0,0
20.03.2019 00:00:00 3,8 3,3 2,2 9 5 14 8 S 1029,5 5 0,0
19.03.2019 23:00:00 4,8 4,0 3,5 9 5 14 8 S 1029,3 7 0,0
19.03.2019 22:00:00 5,9 4,7 4,6 8 4 11 6 SSW 1029,3 8 0,0
19.03.2019 21:00:00 6,0 4,8 4,8 8 4 11 6 SSW 1029,2 10 0,0
19.03.2019 20:00:00 5,7 4,4 3,0 5 3 11 6 S 1028,7 10 0,0
19.03.2019 19:00:00 6,7 4,0 4,3 8 4 11 6 S 1028,3 10 0,0
19.03.2019 18:00:00 8,3 4,2 7,7 9 5 18 10 SSW 1027,9 10 0,0
19.03.2019 17:00:00 10,0 3,9 10,6 13 7 22 12 SW 1027,7 10 0,0
19.03.2019 16:00:00 10,3 3,3 11,4 14 8 - - SW 1027,8 28 0,0
19.03.2019 15:00:00 10,2 2,9 11,6 15 8 22 12 SW 1027,8 10 0,0
19.03.2019 14:00:00 10,1 3,3 11,7 15 8 25 14 WSW 1027,9 10 0,0
19.03.2019 13:00:00 9,5 1,0 11,7 11 6 18 10 W 1028,0 10 0,0
19.03.2019 12:00:00 9,0 2,4 10,9 11 6 18 10 SSW 1027,9 10 0,0
19.03.2019 11:00:00 7,5 0,6 8,3 9 5 14 8 W 1027,7 10 0,0

tt = Température de l'air
td = dewpoint
tt 5cm = Température de l'air 5cm
ff = Vitesse du vent
fx = gusts
dd = Direction du vent
ppp = reduced air pressure
vv = visibility
rr = Quantités de précipitations

stations d'obs. à proximité